Location: Caltech
(34.1382°N, 118.1253°W)
Time: 23:52:50
(UTC-07:00)

SEDSat Delta rocket - Visible Passes

Search period start: 28 July 2015 00:00
Search period end: 07 August 2015 00:00
Orbit: 534 x 1005 km, 31.4° (Epoch: 28 July)

Date Brightness Start Highest point End Pass type
(mag) Time Alt. Az. Time Alt. Az. Time Alt. Az.
28 Jul 3.7 21:09:22 10° W 21:13:05 35° SSW 21:14:52 24° SSE visible
29 Jul 3.6 20:29:33 10° W 20:33:20 38° SSW 20:37:03 11° SE visible
29 Jul 5.4 22:16:46 10° WSW 22:17:13 11° SW 22:17:13 11° SW visible
30 Jul 4.8 21:36:41 10° WSW 21:39:14 16° SSW 21:39:26 16° SSW visible
31 Jul 4.7 20:56:39 10° WSW 20:59:29 18° SSW 21:01:42 12° SSE visible
01 Aug 4.6 20:16:37 10° WSW 20:19:44 21° SSW 20:22:47 10° SSE visible
